Location: Nairn
(57.5833°N, 3.8667°W)
Time: 01:59:51
(UTC+00:00)

Cosmos 1048 Rocket - Pass Details

Date: 07 August 2020
Orbit: 743 x 791 km, 74.0° (Epoch: 19 September)

Event Time Altitude Azimuth Distance (km) Brightness Sun altitude
Rises 03:19:10 0° 330° (NNW) 3,199 7.4 -7.5°
Reaches altitude 10° 03:21:33 10° 333° (NNW) 2,272 6.7 -7.3°
Maximum altitude 03:26:41 68° 56° (NE) 807 4.4 -6.8°
Drops below altitude 10° 03:31:48 10° 140° (SE) 2,272 6.4 -6.3°
Sets 03:34:11 0° 143° (SE) 3,199 7.1 -6.1°
